Time,TemperatureF,DewpointF,PressureIn,WindDirection,WindDirectionDegrees,WindSpeedMPH,WindSpeedGustMPH,Humidity,HourlyPrecipIn,Conditions,Clouds,dailyrainin,SoftwareType,DateUTC
2013-03-03 00:01:00,47.6,26.2,30.28,South,190,1.1,1.1,43,0.00,CLR,,0.00,WeatherDisplay:10.37,2013-03-03 06:01:00,
2013-03-03 00:06:00,47.5,26.1,30.28,SSE,150,1.1,1.1,43,0.00,CLR,,0.00,WeatherDisplay:10.37,2013-03-03 06:06:00,
2013-03-03 00:11:00,47.3,25.9,30.28,SSE,167,1.1,1.1,43,0.00,CLR,,0.00,WeatherDisplay:10.37,2013-03-03 06:11:00,
2013-03-03 00:16:00,47.2,26.4,30.28,SSW,199,0.0,0.0,44,0.00,CLR,,0.00,WeatherDisplay:10.37,2013-03-03 06:16:00,
2013-03-03 00:21:00,47.1,26.3,30.28,SSW,201,0.0,0.0,44,0.00,CLR,,0.00,WeatherDisplay:10.37,2013-03-03 06:21:00,
2013-03-03 00:26:00,46.8,26.0,30.28,SSW,201,0.0,0.0,44,0.00,CLR,,0.00,WeatherDisplay:10.37,2013-03-03 06:26:00,
2013-03-03 00:31:00,46.5,25.7,30.28,SSW,201,0.0,0.0,44,0.00,CLR,,0.00,WeatherDisplay:10.37,2013-03-03 06:31:00,
2013-03-03 00:36:00,46.4,25.6,30.27,SSW,201,0.0,0.0,44,0.00,CLR,,0.00,WeatherDisplay:10.37,2013-03-03 06:36:00,
2013-03-03 00:41:00,46.2,25.5,30.28,SSE,160,0.0,0.0,44,0.00,CLR,,0.00,WeatherDisplay:10.37,2013-03-03 06:41:00,
2013-03-03 00:46:00,45.8,25.6,30.28,SSE,160,0.0,0.0,45,0.00,CLR,,0.00,WeatherDisplay:10.37,2013-03-03 06:46:00,
2013-03-03 00:51:00,45.7,25.5,30.27,SSE,160,0.0,0.0,45,0.00,CLR,,0.00,WeatherDisplay:10.37,2013-03-03 06:51:00,
2013-03-03 00:56:00,45.6,26.0,30.27,SSE,163,0.0,0.0,46,0.00,CLR,,0.00,WeatherDisplay:10.37,2013-03-03 06:56:00,
2013-03-03 01:01:00,45.6,26.0,30.27,South,184,0.0,0.0,46,0.00,CLR,,0.00,WeatherDisplay:10.37,2013-03-03 07:01:00,
2013-03-03 01:06:00,45.0,26.0,30.27,SW,224,1.1,1.1,47,0.00,CLR,,0.00,WeatherDisplay:10.37,2013-03-03 07:06:00,
2013-03-03 01:11:00,44.4,25.9,30.28,SW,233,0.0,0.0,48,0.00,CLR,,0.00,WeatherDisplay:10.37,2013-03-03 07:11:00,
2013-03-03 01:16:00,44.6,26.1,30.28,West,259,1.1,1.1,48,0.00,CLR,,0.00,WeatherDisplay:10.37,2013-03-03 07:16:00,
2013-03-03 01:21:00,44.9,25.9,30.27,SW,226,1.1,1.1,47,0.00,CLR,,0.00,WeatherDisplay:10.37,2013-03-03 07:21:00,
2013-03-03 01:26:00,44.6,26.1,30.28,WSW,242,2.3,2.3,48,0.00,CLR,,0.00,WeatherDisplay:10.37,2013-03-03 07:26:00,
2013-03-03 01:31:00,44.7,25.7,30.27,South,191,2.3,2.3,47,0.00,CLR,,0.00,WeatherDisplay:10.37,2013-03-03 07:31:00,
2013-03-03 01:36:00,44.7,25.7,30.28,SW,232,3.5,3.5,47,0.00,CLR,,0.00,WeatherDisplay:10.37,2013-03-03 07:36:00,
2013-03-03 01:41:00,44.6,25.6,30.27,SW,215,2.3,2.3,47,0.00,CLR,,0.00,WeatherDisplay:10.37,2013-03-03 07:41:00,
2013-03-03 01:46:00,44.6,25.6,30.28,SW,219,2.3,2.3,47,0.00,CLR,,0.00,WeatherDisplay:10.37,2013-03-03 07:46:00,
2013-03-03 01:51:00,44.4,25.4,30.28,West,259,2.3,2.3,47,0.00,CLR,,0.00,WeatherDisplay:10.37,2013-03-03 07:51:00,
2013-03-03 01:56:00,44.0,25.5,30.27,West,263,0.0,0.0,48,0.00,CLR,,0.00,WeatherDisplay:10.37,2013-03-03 07:56:00,
2013-03-03 02:01:00,43.9,25.5,30.28,West,264,0.0,0.0,48,0.00,CLR,,0.00,WeatherDisplay:10.37,2013-03-03 08:01:00,
2013-03-03 02:06:00,43.9,26.0,30.28,WSW,252,1.1,1.3,49,0.00,CLR,,0.00,WeatherDisplay:10.37,2013-03-03 08:06:00,
2013-03-03 02:11:00,44.3,25.8,30.27,West,259,1.1,1.1,48,0.00,CLR,,0.00,WeatherDisplay:10.37,2013-03-03 08:11:00,
2013-03-03 02:16:00,44.3,25.8,30.27,West,259,0.0,0.0,48,0.00,CLR,,0.00,WeatherDisplay:10.37,2013-03-03 08:16:00,
2013-03-03 02:21:00,43.4,25.5,30.27,West,260,0.0,0.0,49,0.00,CLR,,0.00,WeatherDisplay:10.37,2013-03-03 08:21:00,
2013-03-03 02:26:00,42.5,25.6,30.27,West,259,0.0,0.0,51,0.00,CLR,,0.00,WeatherDisplay:10.37,2013-03-03 08:26:00,
2013-03-03 02:31:00,41.5,24.7,30.26,West,260,0.0,0.0,51,0.00,CLR,,0.00,WeatherDisplay:10.37,2013-03-03 08:31:00,
2013-03-03 02:36:00,41.1,25.3,30.26,West,259,0.0,0.0,53,0.00,CLR,,0.00,WeatherDisplay:10.37,2013-03-03 08:36:00,
2013-03-03 02:41:00,41.6,25.7,30.26,WSW,258,0.0,0.0,53,0.00,CLR,,0.00,WeatherDisplay:10.37,2013-03-03 08:41:00,
2013-03-03 02:46:00,41.7,25.4,30.26,West,259,0.0,0.0,52,0.00,CLR,,0.00,WeatherDisplay:10.37,2013-03-03 08:46:00,
2013-03-03 02:51:00,41.2,24.9,30.26,West,259,0.0,0.0,52,0.00,CLR,,0.00,WeatherDisplay:10.37,2013-03-03 08:51:00,
2013-03-03 02:56:00,41.6,25.7,30.26,West,260,0.0,0.0,53,0.00,CLR,,0.00,WeatherDisplay:10.37,2013-03-03 08:56:00,
2013-03-03 03:01:00,42.3,25.4,30.25,West,259,0.0,0.0,51,0.00,CLR,,0.00,WeatherDisplay:10.37,2013-03-03 09:01:00,
2013-03-03 03:06:00,42.3,25.4,30.25,West,260,0.0,0.0,51,0.00,CLR,,0.00,WeatherDisplay:10.37,2013-03-03 09:06:00,
2013-03-03 03:11:00,42.2,25.3,30.25,WSW,258,0.0,0.0,51,0.00,CLR,,0.00,WeatherDisplay:10.37,2013-03-03 09:11:00,
2013-03-03 03:16:00,42.4,25.1,30.25,South,175,0.0,0.0,50,0.00,CLR,,0.00,WeatherDisplay:10.37,2013-03-03 09:16:00,
2013-03-03 03:21:00,42.4,25.5,30.25,South,187,1.1,0.0,51,0.00,CLR,,0.00,WeatherDisplay:10.37,2013-03-03 09:21:00,
2013-03-03 03:26:00,42.1,25.3,30.25,South,187,0.0,0.0,51,0.00,CLR,,0.00,WeatherDisplay:10.37,2013-03-03 09:26:00,
2013-03-03 03:31:00,41.7,24.9,30.24,South,187,0.0,0.0,51,0.00,CLR,,0.00,WeatherDisplay:10.37,2013-03-03 09:31:00,
2013-03-03 03:36:00,41.1,24.8,30.24,South,187,0.0,0.0,52,0.00,CLR,,0.00,WeatherDisplay:10.37,2013-03-03 09:36:00,
2013-03-03 03:41:00,41.0,25.2,30.24,SW,225,2.0,2.0,53,0.00,CLR,,0.00,WeatherDisplay:10.37,2013-03-03 09:41:00,
2013-03-03 03:46:00,41.6,25.3,30.24,WSW,257,1.1,1.1,52,0.00,CLR,,0.00,WeatherDisplay:10.37,2013-03-03 09:46:00,
2013-03-03 03:51:00,42.1,25.3,30.24,WNW,284,2.3,2.3,51,0.00,CLR,,0.00,WeatherDisplay:10.37,2013-03-03 09:51:00,
2013-03-03 03:56:00,42.4,25.5,30.24,WNW,294,2.3,2.3,51,0.00,CLR,,0.00,WeatherDisplay:10.37,2013-03-03 09:56:00,
2013-03-03 04:01:00,42.3,25.4,30.24,NW,305,3.5,3.5,51,0.00,CLR,,0.00,WeatherDisplay:10.37,2013-03-03 10:01:00,
2013-03-03 04:06:00,41.9,25.5,30.24,WNW,301,1.0,1.0,52,0.00,CLR,,0.00,WeatherDisplay:10.37,2013-03-03 10:06:00,
2013-03-03 04:11:00,41.3,25.4,30.24,WNW,301,0.0,0.0,53,0.00,CLR,,0.00,WeatherDisplay:10.37,2013-03-03 10:11:00,
2013-03-03 04:16:00,40.7,25.8,30.24,WNW,301,1.1,1.1,55,0.00,CLR,,0.00,WeatherDisplay:10.37,2013-03-03 10:16:00,
2013-03-03 04:21:00,40.8,25.9,30.25,WNW,288,2.3,2.3,55,0.00,CLR,,0.00,WeatherDisplay:10.37,2013-03-03 10:21:00,
2013-03-03 04:26:00,41.0,25.6,30.25,WNW,285,2.3,2.3,54,0.00,CLR,,0.00,WeatherDisplay:10.37,2013-03-03 10:26:00,
2013-03-03 04:31:00,40.9,25.5,30.25,West,277,3.5,3.5,54,0.00,CLR,,0.00,WeatherDisplay:10.37,2013-03-03 10:31:00,
2013-03-03 04:36:00,41.1,25.7,30.25,West,278,3.5,3.5,54,0.00,CLR,,0.00,WeatherDisplay:10.37,2013-03-03 10:36:00,
2013-03-03 04:41:00,41.1,25.7,30.25,West,262,1.1,1.1,54,0.00,CLR,,0.00,WeatherDisplay:10.37,2013-03-03 10:41:00,
2013-03-03 04:46:00,40.4,25.5,30.25,WNW,283,2.3,2.3,55,0.00,CLR,,0.00,WeatherDisplay:10.37,2013-03-03 10:46:00,
2013-03-03 04:51:00,40.5,25.6,30.25,West,277,1.1,1.1,55,0.00,CLR,,0.00,WeatherDisplay:10.37,2013-03-03 10:51:00,
2013-03-03 04:56:00,40.4,25.5,30.25,West,276,0.0,0.0,55,0.00,CLR,,0.00,WeatherDisplay:10.37,2013-03-03 10:56:00,
2013-03-03 05:01:00,39.6,25.2,30.25,West,274,0.0,0.0,56,0.00,CLR,,0.00,WeatherDisplay:10.37,2013-03-03 11:01:00,
2013-03-03 05:06:00,38.3,24.8,30.25,West,273,0.0,0.0,58,0.00,CLR,,0.00,WeatherDisplay:10.37,2013-03-03 11:06:00,
2013-03-03 05:11:00,37.3,24.7,30.25,WSW,243,0.0,0.0,60,0.00,CLR,,0.00,WeatherDisplay:10.37,2013-03-03 11:11:00,
2013-03-03 05:16:00,37.2,25.4,30.25,WSW,255,1.0,1.0,62,0.00,CLR,,0.00,WeatherDisplay:10.37,2013-03-03 11:16:00,
2013-03-03 05:21:00,37.3,25.1,30.25,West,259,1.1,1.6,61,0.00,CLR,,0.00,WeatherDisplay:10.37,2013-03-03 11:21:00,
2013-03-03 05:26:00,38.5,26.2,30.25,West,269,3.5,3.5,61,0.00,CLR,,0.00,WeatherDisplay:10.37,2013-03-03 11:26:00,
2013-03-03 05:31:00,40.6,25.7,30.25,West,262,3.5,3.5,55,0.00,CLR,,0.00,WeatherDisplay:10.37,2013-03-03 11:31:00,
2013-03-03 05:36:00,41.1,25.7,30.25,West,262,2.3,2.3,54,0.00,CLR,,0.00,WeatherDisplay:10.37,2013-03-03 11:36:00,
2013-03-03 05:41:00,41.2,25.3,30.25,West,274,0.0,0.0,53,0.00,CLR,,0.00,WeatherDisplay:10.37,2013-03-03 11:41:00,
2013-03-03 05:46:00,40.4,25.1,30.25,SE,143,0.0,0.0,54,0.00,CLR,,0.00,WeatherDisplay:10.37,2013-03-03 11:46:00,
2013-03-03 05:51:00,39.3,24.5,30.25,SE,143,0.0,0.0,55,0.00,CLR,,0.00,WeatherDisplay:10.37,2013-03-03 11:51:00,
2013-03-03 05:56:00,38.2,24.3,30.25,SE,142,0.0,0.0,57,0.00,CLR,,0.00,WeatherDisplay:10.37,2013-03-03 11:56:00,
2013-03-03 06:01:00,37.5,24.9,30.25,SSE,167,0.0,0.0,60,0.00,CLR,,0.00,WeatherDisplay:10.37,2013-03-03 12:01:00,
2013-03-03 06:06:00,37.6,25.0,30.25,SSE,167,0.0,0.0,60,0.00,CLR,,0.00,WeatherDisplay:10.37,2013-03-03 12:06:00,
2013-03-03 06:11:00,37.3,24.7,30.25,SSE,153,0.0,0.0,60,0.00,CLR,,0.00,WeatherDisplay:10.37,2013-03-03 12:11:00,
2013-03-03 06:16:00,36.9,25.1,30.25,SSE,153,0.0,0.0,62,0.00,CLR,,0.00,WeatherDisplay:10.37,2013-03-03 12:16:00,
2013-03-03 06:21:00,36.6,24.8,30.25,SSE,153,0.0,0.0,62,0.00,CLR,,0.00,WeatherDisplay:10.37,2013-03-03 12:21:00,
2013-03-03 06:26:00,36.4,25.0,30.25,SW,228,0.0,0.0,63,0.00,CLR,,0.00,WeatherDisplay:10.37,2013-03-03 12:26:00,
2013-03-03 06:31:00,37.1,25.7,30.25,WSW,246,0.0,0.0,63,0.00,CLR,,0.00,WeatherDisplay:10.37,2013-03-03 12:31:00,
2013-03-03 06:36:00,37.7,25.5,30.26,WSW,246,0.0,0.0,61,0.00,CLR,,0.00,WeatherDisplay:10.37,2013-03-03 12:36:00,
2013-03-03 06:41:00,37.8,25.1,30.26,WSW,246,0.0,0.0,60,0.00,CLR,,0.00,WeatherDisplay:10.37,2013-03-03 12:41:00,
2013-03-03 06:46:00,37.6,25.0,30.25,SW,231,0.0,0.0,60,0.00,CLR,,0.00,WeatherDisplay:10.37,2013-03-03 12:46:00,
2013-03-03 06:51:00,37.3,25.1,30.25,SW,229,0.0,0.0,61,0.00,CLR,,0.00,WeatherDisplay:10.37,2013-03-03 12:51:00,
2013-03-03 06:56:00,36.8,25.0,30.26,SW,229,1.0,1.0,62,0.00,CLR,,0.00,WeatherDisplay:10.37,2013-03-03 12:56:00,
2013-03-03 07:01:00,36.7,25.3,30.26,SW,229,0.0,0.2,63,0.00,CLR,,0.00,WeatherDisplay:10.37,2013-03-03 13:01:00,
2013-03-03 07:06:00,37.8,25.9,30.26,SW,229,1.1,1.1,62,0.00,CLR,,0.00,WeatherDisplay:10.37,2013-03-03 13:06:00,
2013-03-03 07:11:00,38.8,25.7,30.25,SW,224,1.1,1.1,59,0.00,CLR,,0.00,WeatherDisplay:10.37,2013-03-03 13:11:00,
2013-03-03 07:16:00,39.4,25.4,30.25,SW,229,0.0,0.2,57,0.00,CLR,,0.00,WeatherDisplay:10.37,2013-03-03 13:16:00,
2013-03-03 07:21:00,39.8,25.4,30.26,SW,236,1.1,1.1,56,0.00,CLR,,0.00,WeatherDisplay:10.37,2013-03-03 13:21:00,
2013-03-03 07:26:00,40.2,25.3,30.26,SW,233,2.3,2.3,55,0.00,CLR,,0.00,WeatherDisplay:10.37,2013-03-03 13:26:00,
2013-03-03 07:31:00,40.3,25.8,30.26,WSW,243,1.1,1.1,56,0.00,CLR,,0.00,WeatherDisplay:10.37,2013-03-03 13:31:00,
2013-03-03 07:36:00,40.8,25.9,30.26,WSW,246,1.1,1.1,55,0.00,CLR,,0.00,WeatherDisplay:10.37,2013-03-03 13:36:00,
2013-03-03 07:41:00,41.2,26.2,30.26,WSW,255,2.3,2.3,55,0.00,CLR,,0.00,WeatherDisplay:10.37,2013-03-03 13:41:00,
2013-03-03 07:46:00,41.7,26.3,30.26,SW,231,1.1,1.1,54,0.00,CLR,,0.00,WeatherDisplay:10.37,2013-03-03 13:46:00,
2013-03-03 07:51:00,42.4,27.4,30.26,SW,226,1.1,1.1,55,0.00,CLR,,0.00,WeatherDisplay:10.37,2013-03-03 13:51:00,
2013-03-03 07:56:00,42.9,26.5,30.26,SW,217,1.1,1.1,52,0.00,CLR,,0.00,WeatherDisplay:10.37,2013-03-03 13:56:00,
2013-03-03 08:01:00,43.5,26.6,30.26,SW,215,1.1,1.1,51,0.00,CLR,,0.00,WeatherDisplay:10.37,2013-03-03 14:01:00,
2013-03-03 08:06:00,44.1,28.9,30.27,SSW,210,1.1,0.0,55,0.00,CLR,,0.00,WeatherDisplay:10.37,2013-03-03 14:06:00,
2013-03-03 08:11:00,45.5,29.3,30.27,SSE,155,2.3,2.3,53,0.00,CLR,,0.00,WeatherDisplay:10.37,2013-03-03 14:11:00,
2013-03-03 08:16:00,46.6,29.9,30.27,South,170,2.3,2.3,52,0.00,CLR,,0.00,WeatherDisplay:10.37,2013-03-03 14:16:00,
2013-03-03 08:21:00,46.9,28.7,30.27,South,183,2.3,2.3,49,0.00,CLR,,0.00,WeatherDisplay:10.37,2013-03-03 14:21:00,
2013-03-03 08:26:00,47.1,28.9,30.27,SSW,204,3.5,3.5,49,0.00,CLR,,0.00,WeatherDisplay:10.37,2013-03-03 14:26:00,
2013-03-03 08:31:00,47.7,30.0,30.27,SSW,200,3.5,3.5,50,0.00,CLR,,0.00,WeatherDisplay:10.37,2013-03-03 14:31:00,
2013-03-03 08:36:00,48.2,29.9,30.27,South,169,5.8,5.8,49,0.00,CLR,,0.00,WeatherDisplay:10.37,2013-03-03 14:36:00,
2013-03-03 08:41:00,49.3,30.4,30.27,South,173,8.1,8.1,48,0.00,CLR,,0.00,WeatherDisplay:10.37,2013-03-03 14:41:00,
2013-03-03 08:46:00,50.0,30.5,30.26,South,169,6.9,6.9,47,0.00,CLR,,0.00,WeatherDisplay:10.37,2013-03-03 14:46:00,
2013-03-03 08:51:00,50.7,30.7,30.26,SSE,162,8.1,8.1,46,0.00,CLR,,0.00,WeatherDisplay:10.37,2013-03-03 14:51:00,
2013-03-03 08:56:00,51.1,31.6,30.26,SSE,166,9.2,9.2,47,0.00,CLR,,0.00,WeatherDisplay:10.37,2013-03-03 14:56:00,
2013-03-03 09:01:00,51.4,31.8,30.27,South,171,11.5,11.5,47,0.00,CLR,,0.00,WeatherDisplay:10.37,2013-03-03 15:01:00,
2013-03-03 09:06:00,51.9,32.3,30.26,South,191,9.2,9.2,47,0.00,CLR,,0.00,WeatherDisplay:10.37,2013-03-03 15:06:00,
2013-03-03 09:11:00,52.0,32.4,30.27,South,179,10.4,10.4,47,0.00,CLR,,0.00,WeatherDisplay:10.37,2013-03-03 15:11:00,
2013-03-03 09:16:00,52.4,32.7,30.27,SW,214,10.4,10.4,47,0.00,CLR,,0.00,WeatherDisplay:10.37,2013-03-03 15:16:00,
2013-03-03 09:21:00,52.9,33.7,30.27,South,179,8.1,8.1,48,0.00,CLR,,0.00,WeatherDisplay:10.37,2013-03-03 15:21:00,
2013-03-03 09:26:00,53.6,34.4,30.26,SSW,204,6.9,6.9,48,0.00,CLR,,0.00,WeatherDisplay:10.37,2013-03-03 15:26:00,
2013-03-03 09:31:00,54.5,35.2,30.26,SSW,210,8.1,8.1,48,0.00,CLR,,0.00,WeatherDisplay:10.37,2013-03-03 15:31:00,
2013-03-03 09:36:00,55.2,35.8,30.26,SSW,207,8.1,8.1,48,0.00,CLR,,0.00,WeatherDisplay:10.37,2013-03-03 15:36:00,
2013-03-03 09:41:00,55.7,35.8,30.26,SSE,152,15.0,15.0,47,0.00,CLR,,0.00,WeatherDisplay:10.37,2013-03-03 15:41:00,
2013-03-03 09:46:00,55.9,35.9,30.26,South,171,9.2,9.2,47,0.00,CLR,,0.00,WeatherDisplay:10.37,2013-03-03 15:46:00,
2013-03-03 09:51:00,56.6,36.6,30.26,South,191,11.5,11.5,47,0.00,CLR,,0.00,WeatherDisplay:10.37,2013-03-03 15:51:00,
2013-03-03 09:56:00,57.0,37.0,30.26,South,169,19.6,19.6,47,0.00,CLR,,0.00,WeatherDisplay:10.37,2013-03-03 15:56:00,
2013-03-03 10:01:00,57.2,36.6,30.25,SSW,204,13.0,13.0,46,0.00,CLR,,0.00,WeatherDisplay:10.37,2013-03-03 16:01:00,
2013-03-03 10:06:00,57.2,37.7,30.25,SSW,194,12.7,12.7,48,0.00,CLR,,0.00,WeatherDisplay:10.37,2013-03-03 16:06:00,
2013-03-03 10:11:00,57.9,37.8,30.25,South,169,11.5,11.5,47,0.00,CLR,,0.00,WeatherDisplay:10.37,2013-03-03 16:11:00,
2013-03-03 10:16:00,58.6,37.3,30.25,SSE,160,19.6,19.6,45,0.00,CLR,,0.00,WeatherDisplay:10.37,2013-03-03 16:16:00,
2013-03-03 10:21:00,58.7,37.4,30.24,SSE,156,15.0,15.0,45,0.00,CLR,,0.00,WeatherDisplay:10.37,2013-03-03 16:21:00,
2013-03-03 10:26:00,58.9,37.6,30.24,SSE,151,15.0,15.0,45,0.00,CLR,,0.00,WeatherDisplay:10.37,2013-03-03 16:26:00,
2013-03-03 10:31:00,59.1,37.8,30.24,SSE,160,13.8,13.8,45,0.00,CLR,,0.00,WeatherDisplay:10.37,2013-03-03 16:31:00,
2013-03-03 10:36:00,59.7,37.2,30.24,South,169,11.5,13.0,43,0.00,CLR,,0.00,WeatherDisplay:10.37,2013-03-03 16:36:00,
2013-03-03 10:41:00,60.0,37.4,30.23,South,172,11.5,11.9,43,0.00,CLR,,0.00,WeatherDisplay:10.37,2013-03-03 16:41:00,
2013-03-03 10:46:00,60.6,38.0,30.23,SSW,210,16.1,16.1,43,0.00,CLR,,0.00,WeatherDisplay:10.37,2013-03-03 16:46:00,
2013-03-03 10:51:00,61.0,38.3,30.23,South,175,11.5,11.5,43,0.00,CLR,,0.00,WeatherDisplay:10.37,2013-03-03 16:51:00,
2013-03-03 10:56:00,61.6,38.3,30.22,SE,136,15.0,15.0,42,0.00,CLR,,0.00,WeatherDisplay:10.37,2013-03-03 16:56:00,
2013-03-03 11:01:00,61.8,37.8,30.22,South,170,15.0,15.0,41,0.00,CLR,,0.00,WeatherDisplay:10.37,2013-03-03 17:01:00,
2013-03-03 11:06:00,62.1,38.1,30.21,SSE,164,19.6,19.6,41,0.00,CLR,,0.00,WeatherDisplay:10.37,2013-03-03 17:06:00,
2013-03-03 11:11:00,62.6,37.3,30.21,SSW,207,17.3,17.3,39,0.00,CLR,,0.00,WeatherDisplay:10.37,2013-03-03 17:11:00,
2013-03-03 11:16:00,62.7,36.7,30.21,SSE,159,19.6,19.6,38,0.00,CLR,,0.00,WeatherDisplay:10.37,2013-03-03 17:16:00,
2013-03-03 11:21:00,63.4,38.0,30.21,South,181,19.6,19.6,39,0.00,CLR,,0.00,WeatherDisplay:10.37,2013-03-03 17:21:00,
2013-03-03 11:26:00,63.9,37.1,30.20,SSE,154,16.1,16.1,37,0.00,CLR,,0.00,WeatherDisplay:10.37,2013-03-03 17:26:00,
2013-03-03 11:31:00,64.2,36.7,30.20,South,169,15.0,15.0,36,0.00,CLR,,0.00,WeatherDisplay:10.37,2013-03-03 17:31:00,
2013-03-03 11:36:00,64.2,36.7,30.20,South,180,18.4,18.4,36,0.00,CLR,,0.00,WeatherDisplay:10.37,2013-03-03 17:36:00,
2013-03-03 11:41:00,64.7,36.4,30.20,South,188,18.4,18.4,35,0.00,CLR,,0.00,WeatherDisplay:10.37,2013-03-03 17:41:00,
2013-03-03 11:46:00,64.7,36.4,30.20,SSW,212,15.0,15.0,35,0.00,CLR,,0.00,WeatherDisplay:10.37,2013-03-03 17:46:00,
2013-03-03 11:51:00,64.9,38.0,30.19,SSE,167,17.3,17.3,37,0.00,CLR,,0.00,WeatherDisplay:10.37,2013-03-03 17:51:00,
2013-03-03 11:56:00,64.7,36.4,30.19,SSE,151,16.1,16.1,35,0.00,CLR,,0.00,WeatherDisplay:10.37,2013-03-03 17:56:00,
2013-03-03 12:01:00,65.3,36.9,30.18,SSW,201,12.7,12.7,35,0.00,CLR,,0.00,WeatherDisplay:10.37,2013-03-03 18:01:00,
2013-03-03 12:06:00,65.7,37.3,30.17,SSW,208,13.8,13.8,35,0.00,CLR,,0.00,WeatherDisplay:10.37,2013-03-03 18:06:00,
2013-03-03 12:11:00,65.6,36.5,30.17,SSW,192,18.4,18.4,34,0.00,CLR,,0.00,WeatherDisplay:10.37,2013-03-03 18:11:00,
2013-03-03 12:16:00,65.9,37.5,30.17,SSE,150,16.0,16.0,35,0.00,CLR,,0.00,WeatherDisplay:10.37,2013-03-03 18:16:00,
2013-03-03 12:21:00,66.5,37.2,30.17,SSE,165,14.0,14.0,34,0.00,CLR,,0.00,WeatherDisplay:10.37,2013-03-03 18:21:00,
2013-03-03 12:26:00,66.8,36.8,30.16,SSE,166,18.4,18.4,33,0.00,CLR,,0.00,WeatherDisplay:10.37,2013-03-03 18:26:00,
2013-03-03 12:31:00,67.3,37.2,30.16,SSE,150,17.3,17.3,33,0.00,CLR,,0.00,WeatherDisplay:10.37,2013-03-03 18:31:00,
2013-03-03 12:36:00,67.2,37.1,30.15,SE,144,17.3,17.3,33,0.00,CLR,,0.00,WeatherDisplay:10.37,2013-03-03 18:36:00,
2013-03-03 12:41:00,67.5,38.1,30.14,SE,127,18.4,18.4,34,0.00,CLR,,0.00,WeatherDisplay:10.37,2013-03-03 18:41:00,
2013-03-03 12:46:00,67.7,36.8,30.14,SSW,211,15.0,15.0,32,0.00,CLR,,0.00,WeatherDisplay:10.37,2013-03-03 18:46:00,
2013-03-03 12:51:00,68.3,37.3,30.14,South,175,19.6,19.6,32,0.00,CLR,,0.00,WeatherDisplay:10.37,2013-03-03 18:51:00,
2013-03-03 12:56:00,68.8,36.1,30.13,SSW,208,16.1,16.1,30,0.00,CLR,,0.00,WeatherDisplay:10.37,2013-03-03 18:56:00,
2013-03-03 13:01:00,69.2,37.3,30.12,SSW,204,13.8,13.8,31,0.00,CLR,,0.00,WeatherDisplay:10.37,2013-03-03 19:01:00,
2013-03-03 13:06:00,69.1,35.5,30.12,SSW,201,18.4,18.4,29,0.00,CLR,,0.00,WeatherDisplay:10.37,2013-03-03 19:06:00,
2013-03-03 13:11:00,69.2,35.6,30.12,SW,214,13.8,15.4,29,0.00,CLR,,0.00,WeatherDisplay:10.37,2013-03-03 19:11:00,
2013-03-03 13:16:00,69.8,35.2,30.11,South,188,19.6,19.6,28,0.00,CLR,,0.00,WeatherDisplay:10.37,2013-03-03 19:16:00,
2013-03-03 13:21:00,70.3,34.7,30.11,SSW,197,19.6,19.6,27,0.00,CLR,,0.00,WeatherDisplay:10.37,2013-03-03 19:21:00,
2013-03-03 13:26:00,70.3,35.6,30.11,South,179,15.0,15.0,28,0.00,CLR,,0.00,WeatherDisplay:10.37,2013-03-03 19:26:00,
2013-03-03 13:31:00,70.3,35.6,30.10,SSW,201,17.3,17.3,28,0.00,CLR,,0.00,WeatherDisplay:10.37,2013-03-03 19:31:00,
2013-03-03 13:36:00,70.7,36.0,30.10,SSW,207,19.6,19.6,28,0.00,CLR,,0.00,WeatherDisplay:10.37,2013-03-03 19:36:00,
2013-03-03 13:41:00,70.5,35.8,30.10,South,180,16.1,16.1,28,0.00,CLR,,0.00,WeatherDisplay:10.37,2013-03-03 19:41:00,
2013-03-03 13:46:00,70.9,35.2,30.09,SSW,208,17.3,17.3,27,0.00,CLR,,0.00,WeatherDisplay:10.37,2013-03-03 19:46:00,
2013-03-03 13:51:00,71.1,35.4,30.09,SSE,156,21.9,21.9,27,0.00,CLR,,0.00,WeatherDisplay:10.37,2013-03-03 19:51:00,
2013-03-03 13:56:00,71.3,34.6,30.09,South,183,19.6,19.6,26,0.00,CLR,,0.00,WeatherDisplay:10.37,2013-03-03 19:56:00,
2013-03-03 14:01:00,71.8,35.0,30.08,South,177,19.6,19.6,26,0.00,CLR,,0.00,WeatherDisplay:10.37,2013-03-03 20:01:00,
2013-03-03 14:06:00,71.6,35.8,30.08,SSW,207,17.3,17.3,27,0.00,CLR,,0.00,WeatherDisplay:10.37,2013-03-03 20:06:00,
2013-03-03 14:11:00,72.1,36.3,30.08,South,184,19.6,20.0,27,0.00,CLR,,0.00,WeatherDisplay:10.37,2013-03-03 20:11:00,
2013-03-03 14:16:00,71.6,35.8,30.08,SSE,153,25.3,25.3,27,0.00,CLR,,0.00,WeatherDisplay:10.37,2013-03-03 20:16:00,
2013-03-03 14:21:00,71.7,35.9,30.08,SSE,153,17.0,17.0,27,0.00,CLR,,0.00,WeatherDisplay:10.37,2013-03-03 20:21:00,
2013-03-03 14:26:00,72.1,38.1,30.07,SSE,167,19.0,19.0,29,0.00,CLR,,0.00,WeatherDisplay:10.37,2013-03-03 20:26:00,
2013-03-03 14:31:00,72.7,36.8,30.07,SSE,156,23.0,23.0,27,0.00,CLR,,0.00,WeatherDisplay:10.37,2013-03-03 20:31:00,
2013-03-03 14:36:00,72.4,36.5,30.07,SSW,211,19.6,19.6,27,0.00,CLR,,0.00,WeatherDisplay:10.37,2013-03-03 20:36:00,
2013-03-03 14:41:00,72.8,37.8,30.06,SSW,204,16.1,16.1,28,0.00,CLR,,0.00,WeatherDisplay:10.37,2013-03-03 20:41:00,
2013-03-03 14:46:00,72.8,37.8,30.06,SSE,150,19.6,19.6,28,0.00,CLR,,0.00,WeatherDisplay:10.37,2013-03-03 20:46:00,
2013-03-03 14:51:00,72.7,37.7,30.06,SSE,159,18.4,18.4,28,0.00,CLR,,0.00,WeatherDisplay:10.37,2013-03-03 20:51:00,
2013-03-03 14:56:00,72.9,36.9,30.05,SSW,193,19.6,19.6,27,0.00,CLR,,0.00,WeatherDisplay:10.37,2013-03-03 20:56:00,
2013-03-03 15:01:00,73.2,38.1,30.05,SW,218,16.1,16.1,28,0.00,CLR,,0.00,WeatherDisplay:10.37,2013-03-03 21:01:00,
2013-03-03 15:06:00,73.2,37.2,30.05,WSW,242,18.0,18.0,27,0.00,CLR,,0.00,WeatherDisplay:10.37,2013-03-03 21:06:00,
2013-03-03 15:11:00,73.7,36.7,30.05,SW,224,19.6,19.6,26,0.00,CLR,,0.00,WeatherDisplay:10.37,2013-03-03 21:11:00,
2013-03-03 15:16:00,74.0,36.9,30.04,South,188,19.6,19.6,26,0.00,CLR,,0.00,WeatherDisplay:10.37,2013-03-03 21:16:00,
2013-03-03 15:21:00,74.1,36.0,30.04,South,169,16.1,16.1,25,0.00,CLR,,0.00,WeatherDisplay:10.37,2013-03-03 21:21:00,
2013-03-03 15:26:00,74.4,36.3,30.04,SW,217,19.6,19.6,25,0.00,CLR,,0.00,WeatherDisplay:10.37,2013-03-03 21:26:00,
2013-03-03 15:31:00,74.4,36.3,30.04,South,174,15.0,15.0,25,0.00,CLR,,0.00,WeatherDisplay:10.37,2013-03-03 21:31:00,
2013-03-03 15:36:00,75.0,35.7,30.03,SSW,198,27.6,27.6,24,0.00,CLR,,0.00,WeatherDisplay:10.37,2013-03-03 21:36:00,
2013-03-03 15:41:00,74.8,35.6,30.03,SSW,200,16.1,16.1,24,0.00,CLR,,0.00,WeatherDisplay:10.37,2013-03-03 21:41:00,
2013-03-03 15:46:00,74.9,35.7,30.02,SSW,193,17.3,17.3,24,0.00,CLR,,0.00,WeatherDisplay:10.37,2013-03-03 21:46:00,
2013-03-03 15:51:00,75.4,36.1,30.02,SSW,203,14.0,14.0,24,0.00,CLR,,0.00,WeatherDisplay:10.37,2013-03-03 21:51:00,
2013-03-03 15:56:00,75.5,35.1,30.02,South,185,20.7,20.7,23,0.00,CLR,,0.00,WeatherDisplay:10.37,2013-03-03 21:56:00,
2013-03-03 16:01:00,75.3,36.0,30.01,SSW,204,19.6,19.6,24,0.00,CLR,,0.00,WeatherDisplay:10.37,2013-03-03 22:01:00,
2013-03-03 16:06:00,75.4,35.0,30.01,SSW,198,17.3,17.3,23,0.00,CLR,,0.00,WeatherDisplay:10.37,2013-03-03 22:06:00,
2013-03-03 16:11:00,75.7,35.3,30.01,SSE,149,18.4,18.4,23,0.00,CLR,,0.00,WeatherDisplay:10.37,2013-03-03 22:11:00,
2013-03-03 16:16:00,75.7,34.1,30.01,South,187,17.3,17.3,22,0.00,CLR,,0.00,WeatherDisplay:10.37,2013-03-03 22:16:00,
2013-03-03 16:21:00,75.7,34.1,30.00,South,185,23.0,23.0,22,0.00,CLR,,0.00,WeatherDisplay:10.37,2013-03-03 22:21:00,
2013-03-03 16:26:00,75.8,34.2,30.00,South,176,23.0,23.0,22,0.00,CLR,,0.00,WeatherDisplay:10.37,2013-03-03 22:26:00,
2013-03-03 16:31:00,75.8,34.2,30.00,SSE,163,21.9,21.9,22,0.00,CLR,,0.00,WeatherDisplay:10.37,2013-03-03 22:31:00,
2013-03-03 16:36:00,75.6,34.1,30.00,SSE,150,18.0,18.0,22,0.00,CLR,,0.00,WeatherDisplay:10.37,2013-03-03 22:36:00,
2013-03-03 16:41:00,75.7,35.3,30.00,SSE,153,26.5,26.5,23,0.00,CLR,,0.00,WeatherDisplay:10.37,2013-03-03 22:41:00,
2013-03-03 16:46:00,76.0,34.4,30.00,SSW,204,19.6,19.6,22,0.00,CLR,,0.00,WeatherDisplay:10.37,2013-03-03 22:46:00,
2013-03-03 16:51:00,75.8,34.2,29.99,SSE,153,16.1,16.1,22,0.00,CLR,,0.00,WeatherDisplay:10.37,2013-03-03 22:51:00,
2013-03-03 16:56:00,75.7,34.1,29.99,SSE,166,18.4,18.4,22,0.00,CLR,,0.00,WeatherDisplay:10.37,2013-03-03 22:56:00,
2013-03-03 17:01:00,75.9,34.3,29.99,South,190,16.1,16.1,22,0.00,CLR,,0.00,WeatherDisplay:10.37,2013-03-03 23:01:00,
2013-03-03 17:06:00,75.8,34.2,29.99,SSE,163,21.0,21.0,22,0.00,CLR,,0.00,WeatherDisplay:10.37,2013-03-03 23:06:00,
2013-03-03 17:11:00,75.6,34.1,29.99,SSW,193,15.0,15.0,22,0.00,CLR,,0.00,WeatherDisplay:10.37,2013-03-03 23:11:00,
2013-03-03 17:16:00,75.5,35.1,29.98,SSE,166,16.1,16.1,23,0.00,CLR,,0.00,WeatherDisplay:10.37,2013-03-03 23:16:00,
2013-03-03 17:21:00,75.6,34.1,29.98,SSE,162,18.4,18.4,22,0.00,CLR,,0.00,WeatherDisplay:10.37,2013-03-03 23:21:00,
2013-03-03 17:26:00,75.6,34.1,29.98,South,169,20.7,20.7,22,0.00,CLR,,0.00,WeatherDisplay:10.37,2013-03-03 23:26:00,
2013-03-03 17:31:00,75.5,34.0,29.98,South,181,15.0,15.0,22,0.00,CLR,,0.00,WeatherDisplay:10.37,2013-03-03 23:31:00,
2013-03-03 17:36:00,75.4,35.0,29.98,SE,139,20.0,20.0,23,0.00,CLR,,0.00,WeatherDisplay:10.37,2013-03-03 23:36:00,
2013-03-03 17:41:00,75.1,34.8,29.98,SSE,165,19.6,19.6,23,0.00,CLR,,0.00,WeatherDisplay:10.37,2013-03-03 23:41:00,
2013-03-03 17:46:00,74.8,34.5,29.98,SE,143,18.4,18.4,23,0.00,CLR,,0.00,WeatherDisplay:10.37,2013-03-03 23:46:00,
2013-03-03 17:51:00,74.4,34.2,29.98,South,172,19.6,19.6,23,0.00,CLR,,0.00,WeatherDisplay:10.37,2013-03-03 23:51:00,
2013-03-03 17:56:00,74.2,35.1,29.98,SSE,165,13.0,13.0,24,0.00,CLR,,0.00,WeatherDisplay:10.37,2013-03-03 23:56:00,
2013-03-03 18:01:00,74.2,35.1,29.98,SSE,160,17.3,17.3,24,0.00,CLR,,0.00,WeatherDisplay:10.37,2013-03-04 00:01:00,
2013-03-03 18:06:00,74.0,34.9,29.98,SSE,159,15.0,15.0,24,0.00,CLR,,0.00,WeatherDisplay:10.37,2013-03-04 00:06:00,
2013-03-03 18:11:00,73.7,34.6,29.98,SSE,166,16.1,16.1,24,0.00,CLR,,0.00,WeatherDisplay:10.37,2013-03-04 00:11:00,
2013-03-03 18:16:00,73.3,34.3,29.98,SSE,164,15.0,15.0,24,0.00,CLR,,0.00,WeatherDisplay:10.37,2013-03-04 00:16:00,
2013-03-03 18:21:00,73.0,35.1,29.98,SSE,154,16.1,16.1,25,0.00,CLR,,0.00,WeatherDisplay:10.37,2013-03-04 00:21:00,
2013-03-03 18:26:00,72.4,34.6,29.97,SSE,153,13.8,13.8,25,0.00,CLR,,0.00,WeatherDisplay:10.37,2013-03-04 00:26:00,
2013-03-03 18:31:00,71.8,35.0,29.97,SE,143,11.5,11.5,26,0.00,CLR,,0.00,WeatherDisplay:10.37,2013-03-04 00:31:00,
2013-03-03 18:36:00,71.4,34.7,29.97,SSE,160,11.5,11.5,26,0.00,CLR,,0.00,WeatherDisplay:10.37,2013-03-04 00:36:00,
2013-03-03 18:41:00,70.9,34.3,29.97,SSE,157,10.4,10.4,26,0.00,CLR,,0.00,WeatherDisplay:10.37,2013-03-04 00:41:00,
2013-03-03 18:46:00,70.4,34.8,29.97,SE,140,10.4,10.4,27,0.00,CLR,,0.00,WeatherDisplay:10.37,2013-03-04 00:46:00,
2013-03-03 18:51:00,69.9,34.4,29.97,SSE,159,9.2,9.2,27,0.00,CLR,,0.00,WeatherDisplay:10.37,2013-03-04 00:51:00,
2013-03-03 18:56:00,69.7,36.9,29.98,SSE,148,15.0,15.1,30,0.00,CLR,,0.00,WeatherDisplay:10.37,2013-03-04 00:56:00,
2013-03-03 19:01:00,69.7,40.8,29.98,SSE,148,18.4,18.4,35,0.00,CLR,,0.00,WeatherDisplay:10.37,2013-03-04 01:01:00,
2013-03-03 19:06:00,69.5,41.4,29.98,SE,131,15.0,15.0,36,0.00,CLR,,0.00,WeatherDisplay:10.37,2013-03-04 01:06:00,
2013-03-03 19:11:00,69.0,42.3,29.98,SSE,153,19.6,19.6,38,0.00,CLR,,0.00,WeatherDisplay:10.37,2013-03-04 01:11:00,
2013-03-03 19:16:00,68.5,42.6,29.98,SSE,154,18.4,18.4,39,0.00,CLR,,0.00,WeatherDisplay:10.37,2013-03-04 01:16:00,
2013-03-03 19:21:00,68.0,43.4,29.99,SSE,147,16.1,16.1,41,0.00,CLR,,0.00,WeatherDisplay:10.37,2013-03-04 01:21:00,
2013-03-03 19:26:00,67.7,43.8,29.98,SE,136,16.1,16.1,42,0.00,CLR,,0.00,WeatherDisplay:10.37,2013-03-04 01:26:00,
2013-03-03 19:31:00,67.4,44.1,29.98,SE,145,19.6,19.6,43,0.00,CLR,,0.00,WeatherDisplay:10.37,2013-03-04 01:31:00,
2013-03-03 19:36:00,67.0,43.8,29.98,SE,129,13.8,14.0,43,0.00,CLR,,0.00,WeatherDisplay:10.37,2013-03-04 01:36:00,
2013-03-03 19:41:00,66.6,44.0,29.98,SSE,149,21.9,21.9,44,0.00,CLR,,0.00,WeatherDisplay:10.37,2013-03-04 01:41:00,
2013-03-03 19:46:00,66.2,44.2,29.98,SSE,150,15.0,15.0,45,0.00,CLR,,0.00,WeatherDisplay:10.37,2013-03-04 01:46:00,
2013-03-03 19:51:00,65.8,43.9,29.98,SE,129,13.8,13.8,45,0.00,CLR,,0.00,WeatherDisplay:10.37,2013-03-04 01:51:00,
2013-03-03 19:56:00,65.5,44.2,29.98,SE,140,16.1,16.1,46,0.00,CLR,,0.00,WeatherDisplay:10.37,2013-03-04 01:56:00,
2013-03-03 20:01:00,65.2,44.5,29.98,SE,142,16.1,16.1,47,0.00,CLR,,0.00,WeatherDisplay:10.37,2013-03-04 02:01:00,
2013-03-03 20:06:00,64.7,44.5,29.98,SE,134,17.3,17.3,48,0.00,CLR,,0.00,WeatherDisplay:10.37,2013-03-04 02:06:00,
2013-03-03 20:11:00,64.4,44.3,29.98,SSE,156,15.0,15.0,48,0.00,CLR,,0.00,WeatherDisplay:10.37,2013-03-04 02:11:00,
2013-03-03 20:16:00,64.0,44.4,29.97,SE,129,13.8,13.8,49,0.00,CLR,,0.00,WeatherDisplay:10.37,2013-03-04 02:16:00,
2013-03-03 20:21:00,63.7,44.2,29.98,SE,131,18.4,18.4,49,0.00,CLR,,0.00,WeatherDisplay:10.37,2013-03-04 02:21:00,
2013-03-03 20:26:00,63.4,44.4,29.98,SSE,160,15.0,15.0,50,0.00,CLR,,0.00,WeatherDisplay:10.37,2013-03-04 02:26:00,
2013-03-03 20:31:00,63.1,44.2,29.98,SSE,156,18.4,18.4,50,0.00,CLR,,0.00,WeatherDisplay:10.37,2013-03-04 02:31:00,
2013-03-03 20:36:00,62.9,44.5,29.98,SE,124,19.6,19.6,51,0.00,CLR,,0.00,WeatherDisplay:10.37,2013-03-04 02:36:00,
2013-03-03 20:41:00,62.7,44.3,29.98,SE,128,17.3,17.3,51,0.00,CLR,,0.00,WeatherDisplay:10.37,2013-03-04 02:41:00,
2013-03-03 20:46:00,62.4,44.0,29.98,SE,144,17.3,17.3,51,0.00,CLR,,0.00,WeatherDisplay:10.37,2013-03-04 02:46:00,
2013-03-03 20:51:00,62.1,44.3,29.98,SSE,153,19.6,19.6,52,0.00,CLR,,0.00,WeatherDisplay:10.37,2013-03-04 02:51:00,
2013-03-03 20:56:00,61.8,44.0,29.98,SE,140,13.0,13.0,52,0.00,CLR,,0.00,WeatherDisplay:10.37,2013-03-04 02:56:00,
2013-03-03 21:01:00,61.6,44.3,29.98,SSE,151,19.6,19.6,53,0.00,CLR,,0.00,WeatherDisplay:10.37,2013-03-04 03:01:00,
2013-03-03 21:06:00,61.4,43.6,29.98,SSE,158,23.0,23.0,52,0.00,CLR,,0.00,WeatherDisplay:10.37,2013-03-04 03:06:00,
2013-03-03 21:11:00,61.2,43.9,29.98,SSE,166,16.1,16.1,53,0.00,CLR,,0.00,WeatherDisplay:10.37,2013-03-04 03:11:00,
2013-03-03 21:16:00,61.1,43.8,29.98,SE,146,20.7,20.7,53,0.00,CLR,,0.00,WeatherDisplay:10.37,2013-03-04 03:16:00,
2013-03-03 21:21:00,60.8,43.6,29.98,SSE,151,19.6,19.6,53,0.00,CLR,,0.00,WeatherDisplay:10.37,2013-03-04 03:21:00,
2013-03-03 21:26:00,60.5,43.3,29.98,SSE,160,19.6,19.6,53,0.00,CLR,,0.00,WeatherDisplay:10.37,2013-03-04 03:26:00,
2013-03-03 21:31:00,60.3,43.6,29.98,SE,143,17.3,17.3,54,0.00,CLR,,0.00,WeatherDisplay:10.37,2013-03-04 03:31:00,
2013-03-03 21:36:00,60.0,43.3,29.98,SE,146,17.3,17.3,54,0.00,CLR,,0.00,WeatherDisplay:10.37,2013-03-04 03:36:00,
2013-03-03 21:41:00,59.8,43.1,29.98,SSE,157,18.4,18.4,54,0.00,CLR,,0.00,WeatherDisplay:10.37,2013-03-04 03:41:00,
2013-03-03 21:46:00,59.6,42.9,29.98,SSE,148,20.7,20.7,54,0.00,CLR,,0.00,WeatherDisplay:10.37,2013-03-04 03:46:00,
2013-03-03 21:51:00,59.2,43.0,29.98,SSE,157,18.4,18.4,55,0.00,CLR,,0.00,WeatherDisplay:10.37,2013-03-04 03:51:00,
2013-03-03 21:56:00,59.1,42.9,29.98,SSE,159,19.6,19.6,55,0.00,CLR,,0.00,WeatherDisplay:10.37,2013-03-04 03:56:00,
2013-03-03 22:01:00,58.9,42.8,29.98,SSE,150,17.3,17.3,55,0.00,CLR,,0.00,WeatherDisplay:10.37,2013-03-04 04:01:00,
2013-03-03 22:06:00,58.7,42.6,29.98,SE,146,11.5,11.5,55,0.00,CLR,,0.00,WeatherDisplay:10.37,2013-03-04 04:06:00,
2013-03-03 22:11:00,58.6,42.9,29.98,SSE,148,15.0,15.0,56,0.00,CLR,,0.00,WeatherDisplay:10.37,2013-03-04 04:11:00,
2013-03-03 22:16:00,58.5,43.3,29.98,SSE,156,13.8,13.8,57,0.00,CLR,,0.00,WeatherDisplay:10.37,2013-03-04 04:16:00,
2013-03-03 22:21:00,58.5,43.3,29.97,SSE,149,17.3,17.3,57,0.00,CLR,,0.00,WeatherDisplay:10.37,2013-03-04 04:21:00,
2013-03-03 22:26:00,58.2,43.5,29.98,SSE,166,16.0,16.0,58,0.00,CLR,,0.00,WeatherDisplay:10.37,2013-03-04 04:26:00,
2013-03-03 22:31:00,58.0,43.7,29.97,SSE,160,15.0,15.0,59,0.00,CLR,,0.00,WeatherDisplay:10.37,2013-03-04 04:31:00,
2013-03-03 22:36:00,57.9,43.7,29.97,SSE,159,16.1,16.1,59,0.00,CLR,,0.00,WeatherDisplay:10.37,2013-03-04 04:36:00,
2013-03-03 22:41:00,57.8,44.0,29.97,SSE,160,16.1,16.1,60,0.00,CLR,,0.00,WeatherDisplay:10.37,2013-03-04 04:41:00,
2013-03-03 22:46:00,57.9,44.1,29.98,SSE,166,15.0,15.0,60,0.00,CLR,,0.00,WeatherDisplay:10.37,2013-03-04 04:46:00,
2013-03-03 22:51:00,57.7,43.9,29.98,SSE,154,13.0,13.0,60,0.00,CLR,,0.00,WeatherDisplay:10.37,2013-03-04 04:51:00,
2013-03-03 22:56:00,57.5,44.1,29.98,SSE,157,16.1,16.1,61,0.00,CLR,,0.00,WeatherDisplay:10.37,2013-03-04 04:56:00,
2013-03-03 23:00:00,57.5,44.1,29.97,South,177,15.0,15.0,61,0.00,CLR,,0.00,WeatherDisplay:10.37,2013-03-04 05:00:00,
2013-03-03 23:05:00,57.4,44.1,29.97,SE,129,17.3,17.3,61,0.00,CLR,,0.00,WeatherDisplay:10.37,2013-03-04 05:05:00,
2013-03-03 23:10:00,57.3,44.0,29.97,SSE,166,15.0,15.0,61,0.00,CLR,,0.00,WeatherDisplay:10.37,2013-03-04 05:10:00,
2013-03-03 23:15:00,57.1,44.2,29.97,SSE,162,17.0,17.0,62,0.00,CLR,,0.00,WeatherDisplay:10.37,2013-03-04 05:15:00,
2013-03-03 23:20:00,57.0,44.1,29.97,SSE,163,11.5,11.5,62,0.00,CLR,,0.00,WeatherDisplay:10.37,2013-03-04 05:20:00,
2013-03-03 23:25:00,56.8,43.9,29.97,SSE,164,12.7,12.7,62,0.00,CLR,,0.00,WeatherDisplay:10.37,2013-03-04 05:25:00,
2013-03-03 23:30:00,56.7,44.2,29.96,SSE,159,13.8,13.8,63,0.00,CLR,,0.00,WeatherDisplay:10.37,2013-03-04 05:30:00,
2013-03-03 23:35:00,56.5,44.0,29.96,SSE,154,12.7,12.7,63,0.00,CLR,,0.00,WeatherDisplay:10.37,2013-03-04 05:35:00,
2013-03-03 23:40:00,56.5,44.0,29.96,SSE,160,12.7,12.7,63,0.00,CLR,,0.00,WeatherDisplay:10.37,2013-03-04 05:40:00,
2013-03-03 23:45:00,56.4,44.4,29.96,SSE,153,12.7,12.7,64,0.00,CLR,,0.00,WeatherDisplay:10.37,2013-03-04 05:45:00,
2013-03-03 23:50:00,56.2,44.2,29.96,SSE,160,13.8,13.8,64,0.00,CLR,,0.00,WeatherDisplay:10.37,2013-03-04 05:50:00,
2013-03-03 23:55:00,56.3,44.3,29.95,SSE,167,13.8,13.8,64,0.00,CLR,,0.00,WeatherDisplay:10.37,2013-03-04 05:55:00,